Year,Month,Day,Hour,Minute,Value (Times are PST for temperature in C)
2018,10,14,18,29,12.00
2018,10,14,18,30,12.00
2018,10,14,19,29,10.90
2018,10,14,19,30,10.90
2018,10,14,19,31,10.90
2018,10,14,19,32,10.90
2018,10,14,19,33,10.90
2018,10,14,19,34,10.80
2018,10,14,19,35,10.80
2018,10,14,19,36,10.80
2018,10,14,19,37,10.70
2018,10,14,19,38,10.70
2018,10,14,19,39,10.70
2018,10,14,19,40,10.70
2018,10,14,19,41,10.60
2018,10,14,19,42,10.60
2018,10,14,19,43,10.60
2018,10,14,19,44,10.60
2018,10,14,19,45,10.60
2018,10,14,19,46,10.60
2018,10,14,19,47,10.60
2018,10,14,19,48,10.60
2018,10,14,19,49,10.60
2018,10,14,19,50,10.40
2018,10,14,19,51,10.40
2018,10,14,19,52,10.40
2018,10,14,19,53,10.40
2018,10,14,19,54,10.40
2018,10,14,19,55,10.40
2018,10,14,19,56,10.40
2018,10,14,19,57,10.40
2018,10,14,19,58,10.40
2018,10,14,19,59,10.40
2018,10,14,20,00,10.30
2018,10,14,20,01,10.30
2018,10,14,20,02,10.30
2018,10,14,20,03,10.30
2018,10,14,20,04,10.30
2018,10,14,20,06,10.20
2018,10,14,20,07,10.20
2018,10,14,20,08,10.20
2018,10,14,20,09,10.20
2018,10,14,20,29,9.90
2018,10,14,20,30,9.90
2018,10,14,20,31,9.90
2018,10,14,20,32,9.90
2018,10,14,20,33,9.90
2018,10,14,20,34,9.90
2018,10,14,20,35,9.90
2018,10,14,20,36,9.90
2018,10,14,20,37,9.90
2018,10,14,20,38,9.90
2018,10,14,20,39,9.90
2018,10,14,20,40,9.90
2018,10,14,20,41,9.90
2018,10,14,20,42,9.90
2018,10,14,20,43,9.90
2018,10,14,20,44,9.90
2018,10,14,20,45,9.90
2018,10,14,20,46,9.90
2018,10,14,20,47,9.90
2018,10,14,20,48,9.90
2018,10,14,20,49,9.90
2018,10,14,20,50,9.90
2018,10,14,20,51,9.90
2018,10,14,20,52,9.90
2018,10,14,20,53,9.90
2018,10,14,20,54,9.90
2018,10,14,20,55,9.90
2018,10,14,20,56,9.90
2018,10,14,20,57,9.90
2018,10,14,20,59,9.90
2018,10,14,21,29,9.90
2018,10,14,21,30,9.90
2018,10,14,21,31,9.90
2018,10,14,21,32,9.90
2018,10,14,21,33,10.10
2018,10,14,21,34,10.10
2018,10,14,21,35,10.10
2018,10,14,21,36,10.10
2018,10,14,21,37,10.10
2018,10,14,21,38,10.10
2018,10,14,21,39,10.20
2018,10,14,21,40,10.20
2018,10,14,21,41,10.20
2018,10,14,21,42,10.20
2018,10,14,21,43,10.30
2018,10,14,21,44,10.30
2018,10,14,21,45,10.40
2018,10,14,21,46,10.40
2018,10,14,21,47,10.40
2018,10,14,21,48,10.40
2018,10,14,21,49,10.40
2018,10,14,21,50,10.40
2018,10,14,21,51,10.40
2018,10,14,21,52,10.40
2018,10,14,21,53,10.40
2018,10,14,21,54,10.40
2018,10,14,21,55,10.40
2018,10,14,21,56,10.40
2018,10,14,21,57,10.40
2018,10,14,21,58,10.40
2018,10,14,21,59,10.40
2018,10,14,22,01,10.40
2018,10,14,22,02,10.40
2018,10,14,22,03,10.40
2018,10,14,22,04,10.40
2018,10,14,22,29,10.30
2018,10,14,22,30,10.30
2018,10,14,22,31,10.30
2018,10,14,22,32,10.30
2018,10,14,22,33,10.30
2018,10,14,22,34,10.30
2018,10,14,22,35,10.30
2018,10,14,22,36,10.30
2018,10,14,22,37,10.20
2018,10,14,22,38,10.20
2018,10,14,22,39,10.20
2018,10,14,22,40,10.20
2018,10,14,22,41,10.20
2018,10,14,22,42,10.10
2018,10,14,22,43,10.10
2018,10,14,22,44,10.10
2018,10,14,22,45,10.10
2018,10,14,22,46,10.10
2018,10,14,22,47,10.10
2018,10,14,22,48,10.10
2018,10,14,22,49,10.10
2018,10,14,22,50,9.90
2018,10,14,22,51,9.90
2018,10,14,22,52,9.90
2018,10,14,22,53,9.90
2018,10,14,22,54,9.90
2018,10,14,22,55,9.90
2018,10,14,22,56,9.90
2018,10,14,22,57,9.90
2018,10,14,22,58,9.90
2018,10,14,22,59,9.90
2018,10,14,23,00,9.80
2018,10,14,23,01,9.80
2018,10,14,23,02,9.80
2018,10,14,23,03,9.80
2018,10,14,23,04,9.80
2018,10,14,23,05,9.90
2018,10,14,23,07,9.90
2018,10,14,23,08,9.90
2018,10,14,23,09,9.90
2018,10,14,23,29,9.60
2018,10,14,23,30,9.60
2018,10,14,23,31,9.60
2018,10,14,23,32,9.60
2018,10,14,23,33,9.60
2018,10,14,23,34,9.60
2018,10,14,23,35,9.60
2018,10,14,23,36,9.50
2018,10,14,23,37,9.50
2018,10,14,23,38,9.50
2018,10,14,23,39,9.50
2018,10,14,23,40,9.50
2018,10,14,23,41,9.50
2018,10,14,23,42,9.50
2018,10,14,23,43,9.50
2018,10,14,23,44,9.50
2018,10,14,23,45,9.60
2018,10,14,23,46,9.60
2018,10,14,23,47,9.60
2018,10,14,23,48,9.60
2018,10,14,23,49,9.60
2018,10,14,23,50,9.60
2018,10,14,23,51,9.60
2018,10,14,23,52,9.60
2018,10,14,23,53,9.60
2018,10,14,23,54,9.60
2018,10,14,23,55,9.60
2018,10,14,23,56,9.60
2018,10,14,23,57,9.60
2018,10,14,23,58,9.60
2018,10,14,23,59,9.60
